| time (UTC) | temp F | wind direction | speed MPH | gust MPH | rain 1hr in | rain 24hr in | rain mn in | humidity % | barometer mb |
| 20260509051539 | 86 | 254 | 0.0 | 0.0 | 0.00 | 0.00 | 0.00 | 18 | 1004.9 |
| 20260509050039 | 88 | 254 | 0.0 | 0.0 | 0.00 | 0.00 | 0.00 | 17 | 1004.9 |
| 20260509044538 | 88 | 254 | 0.0 | 0.0 | 0.00 | 0.00 | 0.00 | 16 | 1004.7 |
| 20260509043037 | 89 | 254 | 0.0 | 0.0 | 0.00 | 0.00 | 0.00 | 16 | 1004.6 |
| 20260509041537 | 89 | 254 | 0.0 | 0.0 | 0.00 | 0.00 | 0.00 | 15 | 1004.4 |
| 20260509040042 | 90 | 254 | 0.0 | 0.0 | 0.00 | 0.00 | 0.00 | 15 | 1004.1 |
| 20260509034539 | 91 | 254 | 3.0 | 0.0 | 0.00 | 0.00 | 0.00 | 14 | 1004.0 |
| 20260509033036 | 92 | 254 | 0.0 | 0.0 | 0.00 | 0.00 | 0.00 | 14 | 1003.9 |
| 20260509031542 | 92 | 254 | 0.0 | 0.0 | 0.00 | 0.00 | 0.00 | 13 | 1003.6 |
| 20260509030036 | 93 | 254 | 1.0 | 0.0 | 0.00 | 0.00 | 0.00 | 13 | 1003.6 |
| 20260509024534 | 93 | 254 | 2.0 | 0.0 | 0.00 | 0.00 | 0.00 | 12 | 1003.5 |
| 20260509023036 | 94 | 254 | 1.0 | 0.0 | 0.00 | 0.00 | 0.00 | 12 | 1003.3 |
| 20260509021534 | 94 | 254 | 3.0 | 0.0 | 0.00 | 0.00 | 0.00 | 12 | 1003.2 |
| 20260509020033 | 95 | 261 | 3.0 | 0.0 | 0.00 | 0.00 | 0.00 | 12 | 1003.2 |
| 20260509014539 | 96 | 282 | 5.0 | 0.0 | 0.00 | 0.00 | 0.00 | 11 | 1003.1 |
| 20260509013033 | 96 | 268 | 4.0 | 0.0 | 0.00 | 0.00 | 0.00 | 11 | 1003.2 |
| 20260509011532 | 96 | 279 | 6.0 | 0.0 | 0.00 | 0.00 | 0.00 | 12 | 1003.2 |
| 20260509010033 | 96 | 267 | 6.0 | 0.0 | 0.00 | 0.00 | 0.00 | 12 | 1003.4 |
| 20260509004527 | 96 | 319 | 5.0 | 0.0 | 0.00 | 0.00 | 0.00 | 12 | 1003.7 |
| 20260509003028 | 96 | 280 | 7.0 | 0.0 | 0.00 | 0.00 | 0.00 | 13 | 1003.7 |
| 20260509001529 | 96 | 253 | 8.0 | 0.0 | 0.00 | 0.00 | 0.00 | 12 | 1003.7 |
| 20260509000024 | 96 | 256 | 7.0 | 0.0 | 0.00 | 0.00 | 0.00 | 13 | 1003.9 |
| 20260508234522 | 96 | 259 | 7.0 | 0.0 | 0.00 | 0.00 | 0.00 | 13 | 1004.2 |
| 20260508233022 | 96 | 298 | 9.0 | 0.0 | 0.00 | 0.00 | 0.00 | 12 | 1004.2 |
| 20260508231520 | 96 | 319 | 8.0 | 0.0 | 0.00 | 0.00 | 0.00 | 12 | 1004.2 |
| 20260508230019 | 96 | 298 | 8.0 | 0.0 | 0.00 | 0.00 | 0.00 | 13 | 1004.3 |
| 20260508224521 | 95 | 235 | 10.0 | 0.0 | 0.00 | 0.00 | 0.00 | 13 | 1004.5 |
| 20260508223016 | 95 | 250 | 8.0 | 0.0 | 0.00 | 0.00 | 0.00 | 13 | 1004.7 |
| 20260508221515 | 95 | 223 | 8.0 | 0.0 | 0.00 | 0.00 | 0.00 | 13 | 1005.1 |
| 20260508220041 | 94 | 331 | 8.0 | 0.0 | 0.00 | 0.00 | 0.00 | 13 | 1005.3 |
| 20260508214510 | 94 | 260 | 5.0 | 0.0 | 0.00 | 0.00 | 0.00 | 15 | 1005.8 |
| 20260508213010 | 94 | 329 | 7.0 | 0.0 | 0.00 | 0.00 | 0.00 | 14 | 1006.0 |
| 20260508211506 | 93 | 249 | 6.0 | 0.0 | 0.00 | 0.00 | 0.00 | 14 | 1006.3 |
| 20260508210007 | 93 | 275 | 5.0 | 0.0 | 0.00 | 0.00 | 0.00 | 14 | 1006.6 |
| 20260508204503 | 92 | 257 | 3.0 | 0.0 | 0.00 | 0.00 | 0.00 | 16 | 1006.8 |
| 20260508203100 | 91 | 201 | 2.0 | 0.0 | 0.00 | 0.00 | 0.00 | 15 | 1007.0 |
| 20260508201601 | 90 | 189 | 4.0 | 0.0 | 0.00 | 0.00 | 0.00 | 16 | 1007.2 |
| 20260508194555 | 89 | 182 | 3.0 | 0.0 | 0.00 | 0.00 | 0.00 | 16 | 1007.7 |
| 20260508193104 | 89 | 176 | 2.0 | 0.0 | 0.00 | 0.00 | 0.00 | 16 | 1008.2 |
| 20260508191551 | 88 | 175 | 1.0 | 0.0 | 0.00 | 0.00 | 0.00 | 16 | 1008.3 |
| 20260508190105 | 88 | 166 | 0.0 | 0.0 | 0.00 | 0.00 | 0.00 | 18 | 1008.4 |
| 20260508184552 | 87 | 165 | 0.0 | 0.0 | 0.00 | 0.00 | 0.00 | 17 | 1008.7 |
| 20260508183048 | 86 | 163 | 2.0 | 0.0 | 0.00 | 0.00 | 0.00 | 18 | 1008.8 |
| 20260508181602 | 85 | 153 | 1.0 | 0.0 | 0.00 | 0.00 | 0.00 | 18 | 1008.9 |
| 20260508180044 | 84 | 150 | 2.0 | 0.0 | 0.00 | 0.00 | 0.00 | 20 | 1009.2 |
| 20260508174540 | 83 | 149 | 3.0 | 0.0 | 0.00 | 0.00 | 0.00 | 20 | 1009.3 |
| 20260508173030 | 83 | 145 | 2.0 | 0.0 | 0.00 | 0.00 | 0.00 | 20 | 1009.5 |
| 20260508171526 | 82 | 141 | 0.0 | 0.0 | 0.00 | 0.00 | 0.00 | 21 | 1009.6 |
| 20260508170024 | 81 | 137 | 0.0 | 0.0 | 0.00 | 0.00 | 0.00 | 21 | 1009.6 |
| 20260508164517 | 81 | 138 | 1.0 | 0.0 | 0.00 | 0.00 | 0.00 | 21 | 1009.7 |
| 20260508163020 | 80 | 133 | 2.0 | 0.0 | 0.00 | 0.00 | 0.00 | 22 | 1009.7 |
| 20260508161515 | 79 | 133 | 0.0 | 0.0 | 0.00 | 0.00 | 0.00 | 23 | 1009.7 |
| 20260508160008 | 79 | 132 | 3.0 | 0.0 | 0.00 | 0.00 | 0.00 | 23 | 1009.5 |
| 20260508154505 | 78 | 132 | 2.0 | 0.0 | 0.00 | 0.00 | 0.00 | 24 | 1009.5 |
| 20260508153002 | 77 | 134 | 5.0 | 0.0 | 0.00 | 0.00 | 0.00 | 25 | 1009.7 |
| 20260508151558 | 76 | 133 | 6.0 | 0.0 | 0.00 | 0.00 | 0.00 | 25 | 1009.8 |
| 20260508150054 | 76 | 121 | 3.0 | 0.0 | 0.00 | 0.00 | 0.00 | 25 | 1009.8 |
| 20260508144553 | 75 | 118 | 4.0 | 0.0 | 0.00 | 0.00 | 0.00 | 26 | 1009.8 |
| 20260508143051 | 75 | 110 | 3.0 | 0.0 | 0.00 | 0.00 | 0.00 | 27 | 1009.7 |
| 20260508141553 | 74 | 110 | 1.0 | 0.0 | 0.00 | 0.00 | 0.00 | 29 | 1009.8 |
| 20260508140041 | 73 | 117 | 0.0 | 0.0 | 0.00 | 0.00 | 0.00 | 29 | 1009.4 |
| 20260508134550 | 72 | 113 | 1.0 | 0.0 | 0.00 | 0.00 | 0.00 | 30 | 1009.3 |
| 20260508133036 | 71 | 112 | 0.0 | 0.0 | 0.00 | 0.00 | 0.00 | 30 | 1009.1 |
| 20260508131533 | 70 | 113 | 0.0 | 0.0 | 0.00 | 0.00 | 0.00 | 31 | 1008.9 |
| 20260508130029 | 70 | 120 | 0.0 | 0.0 | 0.00 | 0.00 | 0.00 | 31 | 1008.5 |
| 20260508124526 | 70 | 119 | 2.0 | 0.0 | 0.00 | 0.00 | 0.00 | 31 | 1008.3 |
| 20260508123026 | 70 | 119 | 0.0 | 0.0 | 0.00 | 0.00 | 0.00 | 31 | 1008.2 |
| 20260508121535 | 70 | 118 | 1.0 | 0.0 | 0.00 | 0.00 | 0.00 | 31 | 1008.3 |
| 20260508120025 | 69 | 118 | 2.0 | 0.0 | 0.00 | 0.00 | 0.00 | 32 | 1008.2 |
| 20260508114522 | 70 | 118 | 0.0 | 0.0 | 0.00 | 0.00 | 0.00 | 31 | 1008.1 |
| 20260508113021 | 71 | 118 | 0.0 | 0.0 | 0.00 | 0.00 | 0.00 | 30 | 1008.0 |
| 20260508111521 | 71 | 118 | 0.0 | 0.0 | 0.00 | 0.00 | 0.00 | 30 | 1008.0 |
| 20260508110019 | 71 | 117 | 0.0 | 0.0 | 0.00 | 0.00 | 0.00 | 30 | 1008.0 |
| 20260508104517 | 71 | 117 | 0.0 | 0.0 | 0.00 | 0.00 | 0.00 | 30 | 1007.9 |
| 20260508103015 | 72 | 117 | 0.0 | 0.0 | 0.00 | 0.00 | 0.00 | 29 | 1007.8 |
| 20260508101518 | 72 | 117 | 3.0 | 0.0 | 0.00 | 0.00 | 0.00 | 29 | 1007.7 |
| 20260508100018 | 72 | 117 | 3.0 | 0.0 | 0.00 | 0.00 | 0.00 | 28 | 1007.5 |
| 20260508094512 | 72 | 117 | 3.0 | 0.0 | 0.00 | 0.00 | 0.00 | 28 | 1007.6 |
| 20260508093012 | 73 | 118 | 7.0 | 0.0 | 0.00 | 0.00 | 0.00 | 27 | 1007.5 |
| 20260508091511 | 73 | 115 | 1.0 | 0.0 | 0.00 | 0.00 | 0.00 | 26 | 1007.6 |
| 20260508090010 | 72 | 116 | 0.0 | 0.0 | 0.00 | 0.00 | 0.00 | 24 | 1007.8 |
| 20260508084508 | 72 | 117 | 0.0 | 0.0 | 0.00 | 0.00 | 0.00 | 20 | 1007.8 |
| 20260508083007 | 72 | 260 | 3.0 | 0.0 | 0.00 | 0.00 | 0.00 | 19 | 1007.9 |
| 20260508081513 | 73 | 261 | 1.0 | 0.0 | 0.00 | 0.00 | 0.00 | 21 | 1007.8 |
| 20260508080002 | 74 | 261 | 0.0 | 0.0 | 0.00 | 0.00 | 0.00 | 20 | 1007.8 |
| 20260508074600 | 75 | 261 | 0.0 | 0.0 | 0.00 | 0.00 | 0.00 | 20 | 1007.8 |
| 20260508073058 | 75 | 261 | 0.0 | 0.0 | 0.00 | 0.00 | 0.00 | 20 | 1007.5 |
| 20260508071559 | 75 | 262 | 0.0 | 0.0 | 0.00 | 0.00 | 0.00 | 20 | 1007.3 |
| 20260508070056 | 76 | 261 | 0.0 | 0.0 | 0.00 | 0.00 | 0.00 | 20 | 1007.5 |
| 20260508064554 | 76 | 262 | 0.0 | 0.0 | 0.00 | 0.00 | 0.00 | 20 | 1007.6 |
| 20260508063103 | 76 | 262 | 0.0 | 0.0 | 0.00 | 0.00 | 0.00 | 21 | 1007.6 |
| 20260508061555 | 76 | 261 | 0.0 | 0.0 | 0.00 | 0.00 | 0.00 | 21 | 1007.6 |
| 20260508060055 | 77 | 261 | 0.0 | 0.0 | 0.00 | 0.00 | 0.00 | 21 | 1007.6 |
| 20260508054551 | 78 | 261 | 0.0 | 0.0 | 0.00 | 0.00 | 0.00 | 20 | 1007.4 |
| 20260508053054 | 78 | 262 | 0.0 | 0.0 | 0.00 | 0.00 | 0.00 | 20 | 1007.1 |